This demonstration page uses our WeatherBlox Daily Observations layout. Learn more.

Left ArrowRight Arrow

Hourly Observations for October 22, 2015

Temp ( °F °C ) Dew Point ( °F °C ) Humidity (%) Winds ( mph kmh ) Pressure ( in mb ) Visibility ( mi km ) Precip ( " mm )
12:53 am 00:53 Clear 59 15 42 5.6 54 54 Calm 29.88 1012 10 16 0.00 0.00
1:53 am 01:53 Clear 57 13.9 45 7.2 64 64 Calm 29.91 1013 10 16 0.00 0.00
2:53 am 02:53 Clear 58 14.4 43 6.1 58 58 Calm 29.91 1013 10 16 0.00 0.00
3:53 am 03:53 Clear 59 15 42 5.6 54 54 VRB 5 7 29.92 1013 10 16 0.00 0.00
4:53 am 04:53 Clear 57 13.9 42 5.6 58 58 Calm 29.93 1013 10 16 0.00 0.00
5:53 am 05:53 Clear 55 12.8 43 6.1 64 64 undefined N/A 29.94 1014 10 16 0.00 0.00
6:53 am 06:53 Clear 55 12.8 43 6.1 64 64 Calm 29.95 1014 10 16 0.00 0.00
7:53 am 07:53 Sunny 53 11.7 43 6.1 69 69 Calm 29.97 1015 10 16 0.00 0.00
8:53 am 08:53 Sunny 63 17.2 45 7.2 52 52 N 5 7 30.00 1016 10 16 0.00 0.00
9:53 am 09:53 Sunny 69 20.6 43 6.1 39 39 Calm 30.00 1016 10 16 0.00 0.00
10:53 am 10:53 Sunny 73 22.8 46 7.8 38 38 W 8 13 29.98 1015 10 16 0.00 0.00
11:53 am 11:53 Sunny 80 26.7 41 5 25 25 VRB 7 11 29.97 1015 10 16 0.00 0.00
12:53 pm 12:53 Sunny 84 28.9 38 3.3 19 19 NNE 13 20 29.95 1014 10 16 0.00 0.00
1:53 pm 13:53 Sunny 86 30 39 3.9 19 19 N 8 13 29.91 1013 10 16 0.00 0.00
2:53 pm 14:53 Sunny 86 30 36 2.2 17 17 N 7 11 29.89 1012 10 16 0.00 0.00
3:53 pm 15:53 Sunny 88 31.1 35 1.7 15 15 NW 6 9 29.88 1012 10 16 0.00 0.00
4:53 pm 16:53 Sunny 87 30.6 36 2.2 16 16 NNW 5 7 29.89 1012 10 16 0.00 0.00
5:53 pm 17:53 Sunny 85 29.4 38 3.3 19 19 N 6 9 29.90 1013 10 16 0.00 0.00
6:53 pm 18:53 Clear 80 26.7 40 4.4 24 24 NNW 7 11 29.91 1013 10 16 0.00 0.00
7:53 pm 19:53 Clear 75 23.9 41 5 29 29 NNW 6 9 29.92 1013 10 16 0.00 0.00
8:53 pm 20:53 Clear 71 21.7 42 5.6 35 35 NE 6 9 29.93 1014 10 16 0.00 0.00
9:53 pm 21:53 Clear 65 18.3 42 5.6 43 43 Calm 29.93 1014 10 16 0.00 0.00
10:53 pm 22:53 Clear 67 19.4 42 5.6 41 41 NW 7 11 29.94 1014 10 16 0.00 0.00
11:53 pm 23:53 Clear 63 17.2 41 5 45 45 N 3 6 29.95 1014 10 16 0.00 0.00

Powered by AerisWeather